| time (UTC) | temp F | wind direction | speed MPH | gust MPH | rain 1hr in | rain 24hr in | rain mn in | humidity % | barometer mb |
| 20260502194606 | 59 | 347 | 7.0 | 8.0 | 0.00 | 0.00 | 0.00 | 99 | 1023.6 |
| 20260502194102 | 59 | 347 | 7.0 | 8.0 | 0.00 | 0.00 | 0.00 | 99 | 1023.6 |
| 20260502193559 | 59 | 310 | 8.0 | 9.0 | 0.00 | 0.00 | 0.00 | 99 | 1023.4 |
| 20260502193055 | 59 | 310 | 8.0 | 9.0 | 0.00 | 0.00 | 0.00 | 99 | 1023.4 |
| 20260502192551 | 58 | 6 | 7.0 | 10.0 | 0.00 | 0.00 | 0.00 | 99 | 1023.7 |
| 20260502192049 | 58 | 6 | 7.0 | 10.0 | 0.00 | 0.00 | 0.00 | 99 | 1023.7 |
| 20260502191546 | 60 | 327 | 10.0 | 11.0 | 0.00 | 0.00 | 0.00 | 99 | 1023.8 |
| 20260502191044 | 60 | 327 | 10.0 | 11.0 | 0.00 | 0.00 | 0.00 | 99 | 1023.8 |
| 20260502190541 | 59 | 352 | 11.0 | 13.0 | 0.00 | 0.00 | 0.00 | 99 | 1023.7 |
| 20260502190038 | 59 | 352 | 11.0 | 13.0 | 0.00 | 0.00 | 0.00 | 99 | 1023.7 |
| 20260502185532 | 58 | 319 | 6.0 | 8.0 | 0.00 | 0.00 | 0.00 | 99 | 1024.2 |
| 20260502185030 | 58 | 319 | 6.0 | 8.0 | 0.00 | 0.00 | 0.00 | 99 | 1024.2 |
| 20260502184525 | 59 | 342 | 8.0 | 10.0 | 0.00 | 0.00 | 0.00 | 99 | 1024.2 |
| 20260502184022 | 59 | 342 | 8.0 | 10.0 | 0.00 | 0.00 | 0.00 | 99 | 1024.2 |
| 20260502183518 | 58 | 7 | 4.0 | 6.0 | 0.00 | 0.00 | 0.00 | 99 | 1024.2 |
| 20260502183014 | 58 | 7 | 4.0 | 6.0 | 0.00 | 0.00 | 0.00 | 99 | 1024.2 |
| 20260502182509 | 58 | 21 | 5.0 | 6.0 | 0.00 | 0.00 | 0.00 | 99 | 1024.2 |
| 20260502182005 | 58 | 21 | 5.0 | 6.0 | 0.00 | 0.00 | 0.00 | 99 | 1024.2 |
| 20260502181503 | 57 | 334 | 8.0 | 9.0 | 0.00 | 0.00 | 0.00 | 99 | 1024.3 |
| 20260502181002 | 57 | 334 | 8.0 | 9.0 | 0.00 | 0.00 | 0.00 | 99 | 1024.3 |
| 20260502180459 | 58 | 4 | 9.0 | 10.0 | 0.00 | 0.00 | 0.00 | 99 | 1024.5 |
| 20260502170413 | 58 | 252 | 1.0 | 1.0 | 0.00 | 0.00 | 0.00 | 99 | 1025.0 |
| 20260502163855 | 56 | 332 | 4.0 | 6.0 | 0.00 | 0.00 | 0.00 | 99 | 1024.8 |
| 20260502163352 | 54 | 252 | 1.0 | 2.0 | 0.00 | 0.00 | 0.00 | 99 | 1024.8 |
| 20260502162849 | 54 | 252 | 1.0 | 2.0 | 0.00 | 0.00 | 0.00 | 99 | 1024.8 |
| 20260502162340 | 54 | 355 | 4.0 | 6.0 | 0.00 | 0.00 | 0.00 | 99 | 1024.7 |
| 20260502161838 | 54 | 355 | 4.0 | 6.0 | 0.00 | 0.00 | 0.00 | 99 | 1024.7 |
| 20260502161333 | 54 | 299 | 1.0 | 2.0 | 0.00 | 0.00 | 0.00 | 99 | 1025.1 |
| 20260502160832 | 54 | 299 | 1.0 | 2.0 | 0.00 | 0.00 | 0.00 | 99 | 1025.1 |
| 20260502160330 | 53 | 285 | 1.0 | 1.0 | 0.00 | 0.00 | 0.00 | 99 | 1025.0 |
| 20260502152305 | 50 | 58 | 3.0 | 3.0 | 0.00 | 0.00 | 0.00 | 99 | 1025.2 |
| 20260502151802 | 50 | 58 | 3.0 | 3.0 | 0.00 | 0.00 | 0.00 | 99 | 1025.2 |
| 20260502151259 | 49 | 325 | 1.0 | 3.0 | 0.00 | 0.00 | 0.00 | 99 | 1025.2 |
| 20260502150757 | 49 | 325 | 1.0 | 3.0 | 0.00 | 0.00 | 0.00 | 99 | 1025.2 |
| 20260502150253 | 48 | 71 | 1.0 | 2.0 | 0.00 | 0.00 | 0.00 | 99 | 1025.3 |
| 20260502130642 | 36 | 165 | 13.0 | 16.0 | 0.00 | 0.00 | 0.00 | 99 | 1024.8 |
| 20260502130139 | 36 | 165 | 13.0 | 16.0 | 0.00 | 0.00 | 0.00 | 99 | 1024.8 |
| 20260502123625 | 35 | 140 | 11.0 | 14.0 | 0.00 | 0.00 | 0.00 | 99 | 1024.7 |
| 20260502123121 | 35 | 140 | 11.0 | 14.0 | 0.00 | 0.00 | 0.00 | 99 | 1024.7 |
| 20260502122618 | 35 | 121 | 10.0 | 11.0 | 0.00 | 0.00 | 0.00 | 99 | 1024.7 |
| 20260502122115 | 35 | 121 | 10.0 | 11.0 | 0.00 | 0.00 | 0.00 | 99 | 1024.7 |
| 20260502121613 | 35 | 143 | 13.0 | 15.0 | 0.00 | 0.00 | 0.00 | 99 | 1024.7 |
| 20260502121110 | 35 | 143 | 13.0 | 15.0 | 0.00 | 0.00 | 0.00 | 99 | 1024.7 |
| 20260502120606 | 35 | 140 | 9.0 | 10.0 | 0.00 | 0.00 | 0.00 | 99 | 1024.6 |
| 20260502115601 | 35 | 152 | 10.0 | 13.0 | 0.00 | 0.00 | 0.00 | 99 | 1025.0 |
| 20260502115056 | 35 | 152 | 10.0 | 13.0 | 0.00 | 0.00 | 0.00 | 99 | 1025.0 |
| 20260502114553 | 35 | 155 | 11.0 | 11.0 | 0.00 | 0.00 | 0.00 | 99 | 1024.7 |
| 20260502114050 | 35 | 155 | 11.0 | 11.0 | 0.00 | 0.00 | 0.00 | 99 | 1024.7 |
| 20260502113548 | 35 | 160 | 11.0 | 13.0 | 0.00 | 0.00 | 0.00 | 99 | 1024.7 |
| 20260502113046 | 35 | 160 | 11.0 | 13.0 | 0.00 | 0.00 | 0.00 | 99 | 1024.7 |
| 20260502112544 | 35 | 153 | 10.0 | 13.0 | 0.00 | 0.00 | 0.00 | 99 | 1024.6 |
| 20260502112041 | 35 | 153 | 10.0 | 13.0 | 0.00 | 0.00 | 0.00 | 99 | 1024.6 |
| 20260502111538 | 35 | 150 | 11.0 | 11.0 | 0.00 | 0.00 | 0.00 | 99 | 1024.7 |
| 20260502111035 | 35 | 150 | 11.0 | 11.0 | 0.00 | 0.00 | 0.00 | 99 | 1024.7 |
| 20260502110533 | 35 | 153 | 9.0 | 11.0 | 0.00 | 0.00 | 0.00 | 99 | 1025.0 |
| 20260502110031 | 35 | 153 | 9.0 | 11.0 | 0.00 | 0.00 | 0.00 | 99 | 1025.0 |
| 20260502105527 | 35 | 159 | 11.0 | 13.0 | 0.00 | 0.00 | 0.00 | 99 | 1024.7 |
| 20260502105025 | 35 | 159 | 11.0 | 13.0 | 0.00 | 0.00 | 0.00 | 99 | 1024.7 |
| 20260502104522 | 35 | 140 | 11.0 | 11.0 | 0.00 | 0.00 | 0.00 | 99 | 1024.7 |
| 20260502104020 | 35 | 140 | 11.0 | 11.0 | 0.00 | 0.00 | 0.00 | 99 | 1024.7 |
| 20260502103517 | 35 | 122 | 11.0 | 11.0 | 0.00 | 0.00 | 0.00 | 99 | 1024.8 |
| 20260502103015 | 35 | 122 | 11.0 | 11.0 | 0.00 | 0.00 | 0.00 | 99 | 1024.8 |
| 20260502102511 | 35 | 123 | 11.0 | 14.0 | 0.00 | 0.00 | 0.00 | 99 | 1024.8 |
| 20260502102008 | 35 | 123 | 11.0 | 14.0 | 0.00 | 0.00 | 0.00 | 99 | 1024.8 |
| 20260502101506 | 35 | 130 | 12.0 | 14.0 | 0.00 | 0.00 | 0.00 | 99 | 1024.6 |
| 20260502101004 | 35 | 130 | 12.0 | 14.0 | 0.00 | 0.00 | 0.00 | 99 | 1024.6 |
| 20260502100503 | 35 | 156 | 9.0 | 10.0 | 0.00 | 0.00 | 0.00 | 99 | 1024.6 |
| 20260502091437 | 36 | 152 | 11.0 | 13.0 | 0.00 | 0.00 | 0.00 | 99 | 1024.7 |
| 20260502090934 | 36 | 152 | 11.0 | 13.0 | 0.00 | 0.00 | 0.00 | 99 | 1024.7 |
| 20260502090431 | 36 | 99 | 9.0 | 10.0 | 0.00 | 0.00 | 0.00 | 99 | 1024.5 |
| 20260502071326 | 37 | 97 | 9.0 | 9.0 | 0.00 | 0.00 | 0.00 | 99 | 1025.2 |
| 20260502070824 | 37 | 97 | 9.0 | 9.0 | 0.00 | 0.00 | 0.00 | 99 | 1025.2 |
| 20260502070321 | 38 | 159 | 7.0 | 8.0 | 0.00 | 0.00 | 0.00 | 99 | 1025.3 |
| 20260502065820 | 38 | 159 | 7.0 | 8.0 | 0.00 | 0.00 | 0.00 | 99 | 1025.3 |
| 20260502065318 | 38 | 142 | 9.0 | 10.0 | 0.00 | 0.00 | 0.00 | 99 | 1025.3 |
| 20260502064815 | 38 | 142 | 9.0 | 10.0 | 0.00 | 0.00 | 0.00 | 99 | 1025.3 |
| 20260502064313 | 38 | 151 | 9.0 | 10.0 | 0.00 | 0.00 | 0.00 | 99 | 1025.3 |
| 20260502063810 | 38 | 151 | 9.0 | 10.0 | 0.00 | 0.00 | 0.00 | 99 | 1025.3 |
| 20260502063308 | 38 | 134 | 8.0 | 8.0 | 0.00 | 0.00 | 0.00 | 99 | 1025.3 |
| 20260502062805 | 38 | 134 | 8.0 | 8.0 | 0.00 | 0.00 | 0.00 | 99 | 1025.3 |
| 20260502062305 | 39 | 109 | 9.0 | 10.0 | 0.00 | 0.00 | 0.00 | 99 | 1025.2 |
| 20260502061801 | 39 | 109 | 9.0 | 10.0 | 0.00 | 0.00 | 0.00 | 99 | 1025.2 |
| 20260502061259 | 39 | 163 | 6.0 | 7.0 | 0.00 | 0.00 | 0.00 | 99 | 1025.2 |
| 20260502060759 | 39 | 163 | 6.0 | 7.0 | 0.00 | 0.00 | 0.00 | 99 | 1025.2 |
| 20260502060254 | 39 | 142 | 7.0 | 8.0 | 0.00 | 0.00 | 0.00 | 99 | 1025.3 |
| 20260502055753 | 39 | 142 | 7.0 | 8.0 | 0.00 | 0.00 | 0.00 | 99 | 1025.3 |
| 20260502055250 | 39 | 156 | 6.0 | 7.0 | 0.00 | 0.00 | 0.00 | 99 | 1025.2 |
| 20260502054749 | 39 | 156 | 6.0 | 7.0 | 0.00 | 0.00 | 0.00 | 99 | 1025.2 |
| 20260502054246 | 39 | 132 | 5.0 | 6.0 | 0.00 | 0.00 | 0.00 | 99 | 1025.3 |
| 20260502053744 | 39 | 132 | 5.0 | 6.0 | 0.00 | 0.00 | 0.00 | 99 | 1025.3 |
| 20260502053241 | 39 | 146 | 5.0 | 7.0 | 0.00 | 0.00 | 0.00 | 99 | 1025.2 |
| 20260502052739 | 39 | 146 | 5.0 | 7.0 | 0.00 | 0.00 | 0.00 | 99 | 1025.2 |
| 20260502052237 | 39 | 135 | 6.0 | 8.0 | 0.00 | 0.00 | 0.00 | 99 | 1025.2 |
| 20260502051734 | 39 | 135 | 6.0 | 8.0 | 0.00 | 0.00 | 0.00 | 99 | 1025.2 |
| 20260502051232 | 40 | 158 | 8.0 | 9.0 | 0.00 | 0.00 | 0.00 | 99 | 1025.3 |
| 20260502050728 | 40 | 158 | 8.0 | 9.0 | 0.00 | 0.00 | 0.00 | 99 | 1025.3 |
| 20260502050225 | 40 | 130 | 7.0 | 8.0 | 0.00 | 0.00 | 0.00 | 99 | 1025.2 |
| 20260502045722 | 40 | 130 | 7.0 | 8.0 | 0.00 | 0.00 | 0.00 | 99 | 1025.2 |
| 20260502045219 | 41 | 163 | 6.0 | 7.0 | 0.00 | 0.00 | 0.00 | 99 | 1025.0 |
| 20260502044715 | 41 | 163 | 6.0 | 7.0 | 0.00 | 0.00 | 0.00 | 99 | 1025.0 |
| 20260502044212 | 41 | 155 | 6.0 | 7.0 | 0.00 | 0.00 | 0.00 | 99 | 1025.3 |
| 20260502043709 | 41 | 155 | 6.0 | 7.0 | 0.00 | 0.00 | 0.00 | 99 | 1025.3 |
| 20260502043207 | 42 | 122 | 6.0 | 6.0 | 0.00 | 0.00 | 0.00 | 99 | 1025.2 |
| 20260502042706 | 42 | 122 | 6.0 | 6.0 | 0.00 | 0.00 | 0.00 | 99 | 1025.2 |
| 20260502042204 | 42 | 102 | 4.0 | 4.0 | 0.00 | 0.00 | 0.00 | 99 | 1025.1 |
| 20260502041701 | 42 | 102 | 4.0 | 4.0 | 0.00 | 0.00 | 0.00 | 99 | 1025.1 |
| 20260502041158 | 42 | 168 | 4.0 | 4.0 | 0.00 | 0.00 | 0.00 | 99 | 1025.1 |
| 20260502040655 | 42 | 168 | 4.0 | 4.0 | 0.00 | 0.00 | 0.00 | 99 | 1025.1 |
| 20260502040152 | 43 | 167 | 5.0 | 6.0 | 0.00 | 0.00 | 0.00 | 99 | 1025.0 |
| 20260502035648 | 43 | 167 | 5.0 | 6.0 | 0.00 | 0.00 | 0.00 | 99 | 1025.0 |
| 20260502035145 | 44 | 117 | 1.0 | 1.0 | 0.00 | 0.00 | 0.00 | 99 | 1025.0 |
| 20260502034643 | 44 | 117 | 1.0 | 1.0 | 0.00 | 0.00 | 0.00 | 99 | 1025.0 |
| 20260502034141 | 44 | 136 | 2.0 | 2.0 | 0.00 | 0.00 | 0.00 | 99 | 1024.6 |
| 20260502033639 | 44 | 136 | 2.0 | 2.0 | 0.00 | 0.00 | 0.00 | 99 | 1024.6 |
| 20260502033136 | 44 | 132 | 1.0 | 1.0 | 0.00 | 0.00 | 0.00 | 99 | 1024.7 |
| 20260502032632 | 44 | 132 | 1.0 | 1.0 | 0.00 | 0.00 | 0.00 | 99 | 1024.7 |
| 20260502032129 | 44 | 124 | 3.0 | 3.0 | 0.00 | 0.00 | 0.00 | 99 | 1024.6 |
| 20260502031627 | 44 | 124 | 3.0 | 3.0 | 0.00 | 0.00 | 0.00 | 99 | 1024.6 |
| 20260502031124 | 43 | 77 | 0.0 | 1.0 | 0.00 | 0.00 | 0.00 | 99 | 1024.2 |
| 20260502030623 | 43 | 77 | 0.0 | 1.0 | 0.00 | 0.00 | 0.00 | 99 | 1024.2 |
| 20260502030121 | 44 | 35 | 2.0 | 2.0 | 0.00 | 0.00 | 0.00 | 99 | 1024.1 |
| 20260502025617 | 44 | 35 | 2.0 | 2.0 | 0.00 | 0.00 | 0.00 | 99 | 1024.1 |
| 20260502025115 | 44 | 38 | 2.0 | 2.0 | 0.00 | 0.00 | 0.00 | 99 | 1023.8 |
| 20260502024613 | 44 | 38 | 2.0 | 2.0 | 0.00 | 0.00 | 0.00 | 99 | 1023.8 |
| 20260502024111 | 44 | 289 | 2.0 | 2.0 | 0.00 | 0.00 | 0.00 | 99 | 1023.8 |
| 20260502023609 | 44 | 289 | 2.0 | 2.0 | 0.00 | 0.00 | 0.00 | 99 | 1023.8 |
| 20260502023105 | 45 | 175 | 2.0 | 2.0 | 0.00 | 0.00 | 0.00 | 99 | 1023.8 |
| 20260502022602 | 45 | 175 | 2.0 | 2.0 | 0.00 | 0.00 | 0.00 | 99 | 1023.8 |
| 20260502022100 | 45 | 316 | 2.0 | 3.0 | 0.00 | 0.00 | 0.00 | 99 | 1023.7 |
| 20260502021556 | 45 | 316 | 2.0 | 3.0 | 0.00 | 0.00 | 0.00 | 99 | 1023.7 |
| 20260502021053 | 46 | 213 | 4.0 | 4.0 | 0.00 | 0.00 | 0.00 | 99 | 1023.4 |
| 20260502020551 | 46 | 213 | 4.0 | 4.0 | 0.00 | 0.00 | 0.00 | 99 | 1023.4 |
| 20260502020048 | 46 | 137 | 6.0 | 7.0 | 0.00 | 0.00 | 0.00 | 99 | 1023.2 |
| 20260502015546 | 46 | 137 | 6.0 | 7.0 | 0.00 | 0.00 | 0.00 | 99 | 1023.2 |
| 20260502015042 | 46 | 325 | 4.0 | 7.0 | 0.00 | 0.00 | 0.00 | 99 | 1023.1 |
| 20260502014539 | 47 | 242 | 5.0 | 7.0 | 0.00 | 0.00 | 0.00 | 99 | 1022.9 |
| 20260502014036 | 47 | 242 | 5.0 | 7.0 | 0.00 | 0.00 | 0.00 | 99 | 1022.9 |
| 20260502013531 | 49 | 114 | 6.0 | 8.0 | 0.00 | 0.00 | 0.00 | 99 | 1022.7 |
| 20260502013028 | 49 | 114 | 6.0 | 8.0 | 0.00 | 0.00 | 0.00 | 99 | 1022.7 |
| 20260502012525 | 50 | 170 | 6.0 | 9.0 | 0.00 | 0.00 | 0.00 | 99 | 1022.4 |
| 20260502012023 | 50 | 170 | 6.0 | 9.0 | 0.00 | 0.00 | 0.00 | 99 | 1022.4 |
| 20260502011519 | 51 | 98 | 4.0 | 6.0 | 0.00 | 0.00 | 0.00 | 99 | 1022.6 |
| 20260502011016 | 51 | 98 | 4.0 | 6.0 | 0.00 | 0.00 | 0.00 | 99 | 1022.6 |
| 20260502010514 | 51 | 54 | 3.0 | 3.0 | 0.00 | 0.00 | 0.00 | 99 | 1022.7 |
| 20260502010009 | 51 | 54 | 3.0 | 3.0 | 0.00 | 0.00 | 0.00 | 99 | 1022.7 |
| 20260502005508 | 51 | 10 | 2.0 | 2.0 | 0.00 | 0.00 | 0.00 | 99 | 1022.6 |
| 20260502005005 | 51 | 10 | 2.0 | 2.0 | 0.00 | 0.00 | 0.00 | 99 | 1022.6 |
| 20260502004500 | 50 | 296 | 2.0 | 3.0 | 0.00 | 0.00 | 0.00 | 99 | 1022.6 |
| 20260502003957 | 50 | 296 | 2.0 | 3.0 | 0.00 | 0.00 | 0.00 | 99 | 1022.6 |
| 20260502003455 | 49 | 109 | 4.0 | 6.0 | 0.00 | 0.00 | 0.00 | 99 | 1022.7 |
| 20260502002951 | 49 | 109 | 4.0 | 6.0 | 0.00 | 0.00 | 0.00 | 99 | 1022.7 |
| 20260502002448 | 50 | 207 | 3.0 | 4.0 | 0.00 | 0.00 | 0.00 | 99 | 1022.6 |
| 20260502001946 | 50 | 207 | 3.0 | 4.0 | 0.00 | 0.00 | 0.00 | 99 | 1022.6 |
| 20260502001443 | 51 | 225 | 2.0 | 3.0 | 0.00 | 0.00 | 0.00 | 99 | 1022.4 |
| 20260502000941 | 51 | 225 | 2.0 | 3.0 | 0.00 | 0.00 | 0.00 | 99 | 1022.4 |
| 20260502000439 | 54 | 277 | 5.0 | 8.0 | 0.00 | 0.00 | 0.00 | 99 | 1022.3 |
| 20260501235935 | 54 | 277 | 5.0 | 8.0 | 0.00 | 0.00 | 0.00 | 99 | 1022.3 |
| 20260501235431 | 53 | 347 | 7.0 | 9.0 | 0.00 | 0.00 | 0.00 | 99 | 1022.2 |
| 20260501234926 | 53 | 347 | 7.0 | 9.0 | 0.00 | 0.00 | 0.00 | 99 | 1022.2 |
| 20260501234423 | 53 | 79 | 2.0 | 4.0 | 0.00 | 0.00 | 0.00 | 99 | 1022.3 |
| 20260501233922 | 53 | 79 | 2.0 | 4.0 | 0.00 | 0.00 | 0.00 | 99 | 1022.3 |
| 20260501233419 | 51 | 158 | 9.0 | 10.0 | 0.00 | 0.00 | 0.00 | 99 | 1022.4 |
| 20260501232914 | 51 | 158 | 9.0 | 10.0 | 0.00 | 0.00 | 0.00 | 99 | 1022.4 |
| 20260501232412 | 51 | 135 | 3.0 | 3.0 | 0.00 | 0.00 | 0.00 | 99 | 1022.3 |
| 20260501231909 | 51 | 135 | 3.0 | 3.0 | 0.00 | 0.00 | 0.00 | 99 | 1022.3 |
| 20260501231407 | 53 | 160 | 4.0 | 6.0 | 0.00 | 0.00 | 0.00 | 99 | 1022.3 |
| 20260501230905 | 53 | 160 | 4.0 | 6.0 | 0.00 | 0.00 | 0.00 | 99 | 1022.3 |
| 20260501230404 | 55 | 272 | 5.0 | 7.0 | 0.00 | 0.00 | 0.00 | 99 | 1022.4 |
| 20260501225900 | 55 | 272 | 5.0 | 7.0 | 0.00 | 0.00 | 0.00 | 99 | 1022.4 |
| 20260501225358 | 51 | 177 | 3.0 | 3.0 | 0.00 | 0.00 | 0.00 | 99 | 1022.1 |
| 20260501224854 | 51 | 177 | 3.0 | 3.0 | 0.00 | 0.00 | 0.00 | 99 | 1022.1 |
| 20260501224352 | 52 | 130 | 13.0 | 16.0 | 0.00 | 0.00 | 0.00 | 99 | 1021.8 |
| 20260501223848 | 52 | 130 | 13.0 | 16.0 | 0.00 | 0.00 | 0.00 | 99 | 1021.8 |
| 20260501223344 | 50 | 121 | 6.0 | 7.0 | 0.00 | 0.00 | 0.00 | 99 | 1021.8 |
| 20260501222840 | 50 | 121 | 6.0 | 7.0 | 0.00 | 0.00 | 0.00 | 99 | 1021.8 |
| 20260501222338 | 52 | 23 | 2.0 | 3.0 | 0.00 | 0.00 | 0.00 | 99 | 1022.2 |
| 20260501221829 | 52 | 23 | 2.0 | 3.0 | 0.00 | 0.00 | 0.00 | 99 | 1022.2 |
| 20260501221326 | 53 | 126 | 6.0 | 8.0 | 0.00 | 0.00 | 0.00 | 99 | 1022.2 |
| 20260501220825 | 53 | 126 | 6.0 | 8.0 | 0.00 | 0.00 | 0.00 | 99 | 1022.2 |
| 20260501220321 | 53 | 102 | 6.0 | 8.0 | 0.00 | 0.00 | 0.00 | 99 | 1022.1 |
| 20260501215818 | 53 | 102 | 6.0 | 8.0 | 0.00 | 0.00 | 0.00 | 99 | 1022.1 |
| 20260501215314 | 51 | 47 | 3.0 | 4.0 | 0.00 | 0.00 | 0.00 | 99 | 1022.3 |
| 20260501214809 | 51 | 47 | 3.0 | 4.0 | 0.00 | 0.00 | 0.00 | 99 | 1022.3 |
| 20260501214305 | 54 | 128 | 1.0 | 2.0 | 0.00 | 0.00 | 0.00 | 99 | 1022.6 |
| 20260501213801 | 54 | 128 | 1.0 | 2.0 | 0.00 | 0.00 | 0.00 | 99 | 1022.6 |
| 20260501213258 | 51 | 339 | 1.0 | 1.0 | 0.00 | 0.00 | 0.00 | 99 | 1022.7 |
| 20260501212754 | 51 | 339 | 1.0 | 1.0 | 0.00 | 0.00 | 0.00 | 99 | 1022.7 |
| 20260501212250 | 50 | 250 | 5.0 | 7.0 | 0.00 | 0.00 | 0.00 | 99 | 1022.2 |
| 20260501211748 | 50 | 250 | 5.0 | 7.0 | 0.00 | 0.00 | 0.00 | 99 | 1022.2 |
| 20260501211244 | 57 | 5 | 4.0 | 7.0 | 0.00 | 0.00 | 0.00 | 99 | 1022.6 |
| 20260501210742 | 57 | 5 | 4.0 | 7.0 | 0.00 | 0.00 | 0.00 | 99 | 1022.6 |
| 20260501210238 | 52 | 298 | 4.0 | 4.0 | 0.00 | 0.00 | 0.00 | 99 | 1022.6 |
| 20260501205734 | 52 | 298 | 4.0 | 4.0 | 0.00 | 0.00 | 0.00 | 99 | 1022.6 |
| 20260501205232 | 51 | 212 | 3.0 | 4.0 | 0.00 | 0.00 | 0.00 | 99 | 1022.7 |
| 20260501204729 | 51 | 212 | 3.0 | 4.0 | 0.00 | 0.00 | 0.00 | 99 | 1022.7 |
| 20260501204226 | 53 | 279 | 4.0 | 7.0 | 0.00 | 0.00 | 0.00 | 99 | 1022.7 |
| 20260501203721 | 53 | 279 | 4.0 | 7.0 | 0.00 | 0.00 | 0.00 | 99 | 1022.7 |
| 20260501203219 | 53 | 70 | 2.0 | 3.0 | 0.00 | 0.00 | 0.00 | 99 | 1022.7 |
| 20260501202716 | 53 | 70 | 2.0 | 3.0 | 0.00 | 0.00 | 0.00 | 99 | 1022.7 |
| 20260501202213 | 53 | 142 | 0.0 | 1.0 | 0.00 | 0.00 | 0.00 | 99 | 1022.8 |
| 20260501201709 | 53 | 142 | 0.0 | 1.0 | 0.00 | 0.00 | 0.00 | 99 | 1022.8 |
| 20260501201206 | 54 | 236 | 2.0 | 2.0 | 0.00 | 0.00 | 0.00 | 99 | 1022.7 |
| 20260501200703 | 54 | 236 | 2.0 | 2.0 | 0.00 | 0.00 | 0.00 | 99 | 1022.7 |
| 20260501200200 | 51 | 116 | 2.0 | 2.0 | 0.00 | 0.00 | 0.00 | 99 | 1022.8 |
| 20260501195657 | 51 | 116 | 2.0 | 2.0 | 0.00 | 0.00 | 0.00 | 99 | 1022.8 |
| 20260501195153 | 52 | 5 | 2.0 | 3.0 | 0.00 | 0.00 | 0.00 | 99 | 1022.9 |